This demonstration page uses our WeatherBlox Daily Observations layout. Learn more.

Left ArrowRight Arrow

39.12711, -84.51439

Hourly Observations for August 26, 2018

Temp ( °F °C ) Dew Point ( °F °C ) Humidity (%) Winds ( mph kmh ) Pressure ( in mb ) Visibility ( mi km ) Precip ( " mm )
12:53 am 00:53 Cloudy 74 23.3 72 22.2 94 94 SSW 6 9 30.09 1019 8 13 N/A
1:53 am 01:53 Cloudy 74 23.3 72 22.2 94 94 SSW 6 9 30.10 1019 8 13 N/A
2:53 am 02:53 Cloudy 75 23.9 71 21.7 88 88 SSW 8 13 30.09 1019 9 14 N/A
3:53 am 03:53 Mostly Cloudy 74 23.3 71 21.7 91 91 SSW 6 9 30.09 1019 9 14 N/A
4:10 am 04:10 Cloudy with Thunderstorms 74 23.3 71 21.7 91 91 SSW 6 9 30.09 1019 9 14 N/A
4:25 am 04:25 Cloudy 74 23.3 71 21.7 91 91 SSW 6 9 30.09 1019 9 14 N/A
4:53 am 04:53 Cloudy with Light Rain 74 23.3 71 21.7 91 91 SSW 8 13 30.09 1019 9 14 N/A
5:50 am 05:50 Mostly Clear with Nearby Thunderstorms 73 23 72 22 94 94 S 5 7 30.09 1019 8 13 N/A
5:53 am 05:53 Mostly Clear with Nearby Thunderstorms 72 22.2 71 21.7 97 97 SSW 6 9 30.10 1019 8 13 N/A
6:15 am 06:15 Mostly Cloudy 74 23.3 72 22.2 94 94 SSW 9 15 30.09 1019 9 14 N/A
6:53 am 06:53 Mostly Clear 73 22.8 71 21.7 94 94 SSW 6 9 30.11 1020 8 13 N/A
7:53 am 07:53 Mostly Cloudy 73 22.8 71 21.7 94 94 SSW 5 7 30.12 1020 7 11 N/A
8:53 am 08:53 Mostly Sunny 77 25 73 22.8 88 88 S 5 7 30.14 1021 7 11 N/A
9:53 am 09:53 Partly Cloudy 80 26.7 73 22.8 79 79 SSW 6 9 30.15 1021 8 13 N/A
10:53 am 10:53 Mostly Cloudy 83 28.3 75 23.9 77 77 S 8 13 30.15 1021 7 11 N/A
11:53 am 11:53 Mostly Cloudy 84 28.9 75 23.9 74 74 SW 12 19 30.14 1021 7 11 N/A
12:53 pm 12:53 Mostly Cloudy 88 31.1 76 24.4 68 68 W 10 17 30.12 1020 7 11 N/A
1:53 pm 13:53 Mostly Sunny 90 32.2 76 24.4 63 63 WSW 14 22 30.10 1019 7 11 N/A
2:53 pm 14:53 Partly Cloudy 90 32.2 77 25 66 66 W 15 24 30.10 1019 8 13 N/A
3:53 pm 15:53 Mostly Sunny 90 32.2 76 24.4 63 63 WSW 10 17 30.08 1019 7 11 N/A
4:53 pm 16:53 Mostly Cloudy 89 31.7 76 24.4 65 65 SW 7 11 30.07 1018 7 11 N/A
5:53 pm 17:53 Partly Cloudy 88 31.1 75 23.9 66 66 SSW 10 17 30.07 1018 7 11 N/A
6:53 pm 18:53 Mostly Sunny 86 30 74 23.3 67 67 SSW 9 15 30.06 1018 7 11 N/A
7:53 pm 19:53 Sunny 83 28.3 74 23.3 74 74 SSW 9 15 30.06 1018 7 11 N/A
8:53 pm 20:53 Clear 79 26.1 75 23.9 88 88 SSW 6 9 30.08 1019 8 13 N/A
9:53 pm 21:53 Clear 77 25 74 23.3 90 90 S 5 7 30.09 1019 8 13 N/A
10:53 pm 22:53 Clear 77 25 74 23.3 90 90 N N/A 30.11 1020 7 11 N/A
11:53 pm 23:53 Clear 76 24.4 74 23.3 94 94 N N/A 30.10 1019 7 11 N/A

Powered by AerisWeather